Location: Dumpton Point
(51.3500°N, 1.4433°E)
Time: 23:04:20
(UTC+00:00)

Vanguard 1 - Pass Details

Date: 27 September 2022
Orbit: 650 x 3831 km, 34.2° (Epoch: 03 December)

Event Time Altitude Azimuth Distance (km) Brightness Sun altitude
Rises 14:01:43 0° 210° (SSW) 6,667 15.5 29.5°
Reaches altitude 10° 14:09:04 10° 192° (SSW) 4,928 14.7 28.8°
Maximum altitude 14:15:37 16° 162° (SSE) 3,746 13.5 28.1°
Drops below altitude 10° 14:20:38 10° 129° (SE) 3,588 13.0 27.5°
Sets 14:24:33 0° 108° (ESE) 4,090 13.0 27.1°
